Regional Weather Roundup
Issued by NWS

Home | Current Version | Previous Version | Graphics & Text | Print | Product List | Glossary On
Versions: 1 2 3 4 5 6 7 8 9 10 11 12 13 14 15 16 17 18 19 20 21 22 23 24 25 26 27 28 29 30 31 32 33 34 35 36 37 38 39 40 41 42 43 44 45 46 47 48 49 50
000
ASUS43 KIND 230859
RWRIN

WEATHER ROUNDUP FOR INDIANA
NATIONAL WEATHER SERVICE INDIANAPOLIS IN
500 AM EDT MON APR 23 2018

NOTE: "FAIR" INDICATES FEW OR NO CLOUDS BELOW 12,000 FEET WITH NO
SIGNIFICANT WEATHER AND/OR OBSTRUCTIONS TO VISIBILITY.

* - STATION DOES NOT REPORT WEATHER SUCH AS PRECIPITATION OR FOG.

+ - STATION NOT QUALITY CONTROLLED BY THE NATIONAL WEATHER SERVICE.
    USE DATA WITH CAUTION...ESPECIALLY DEWPOINT AND RELATIVE
    HUMIDITY OBSERVATIONS.

INZ001>003-010>013-019-020-231000-
NORTHWEST INDIANA

CITY           SKY/WX    TMP DP  RH WIND       PRES   REMARKS
KNOX *+        FAIR      43  25  49 E6        30.18S
MONTICELLO +   FAIR      45  23  42 NE8       30.14F

$$

LMZ046-743>745-231000-
SOUTHERN LAKE MICHIGAN

STATION/POSITION TIME  TEMP    WIND        PRES    WAVE
                       AIR SEA DIR/SP/G            HT
                 (UTC) (F)     (DEG/KT/KT) (MB)    (FT)
BURNS HARBOR     0840   45      60/  6/  6 1023.0S
MICHIGAN CITY    0830   47      60/  7/  8   N/A

$$

INZ004-005-014>016-021>024-231000-
NORTH CENTRAL INDIANA

CITY           SKY/WX    TMP DP  RH WIND       PRES   REMARKS
GOSHEN         FAIR      42  25  50 NE5       30.19F
PERU/GRISSOM   MOCLDY   N/A N/A N/A NE12        N/A
ROCHESTER +    FAIR      46  27  46 E6        30.18S
SOUTH BEND     FAIR      43  21  41 E7        30.21S
WARSAW +       FAIR      43  28  56 E9        30.19S

$$

INZ006>009-017-018-025>027-231000-
NORTHEAST INDIANA

CITY           SKY/WX    TMP DP  RH WIND       PRES   REMARKS
FORT WAYNE     MOCLDY    40  29  64 NE9       30.18F WCI  34

$$

INZ028-029-035-036-043>045-051>053-231000-
WEST CENTRAL INDIANA

CITY           SKY/WX    TMP DP  RH WIND       PRES   REMARKS
LAFAYETTE      FAIR      45  26  47 NE13      30.12F
TERRE HAUTE    CLOUDY    54  33  45 E9        30.06R

$$

INZ030>032-037>040-046>048-054>057-064-065-231000-
CENTRAL INDIANA

CITY           SKY/WX    TMP DP  RH WIND       PRES   REMARKS
GREENWOOD *+   FAIR      48  32  52 NE8       30.08S
INDIANAPOLIS   MOCLDY    50  29  44 NE14      30.08F
-EAGLE CREEK   FAIR      48  29  47 NE5       30.09F
KOKOMO +       FAIR      41  29  62 NE9       30.15F
MT COMFORT *+  FAIR      43  36  75 NE7       30.09S
SHELBYVILLE    FAIR      51  32  48 E13       30.07S
ZIONSVILLE +   FAIR      44  29  56 NE8       30.11F

$$

INZ033-034-041-042-049-050-058-059-231000-
EAST CENTRAL INDIANA

CITY           SKY/WX    TMP DP  RH WIND       PRES   REMARKS
MUNCIE         FAIR      45  29  53 NE7       30.13F
RICHMOND +     FAIR      45  32  61 E13       30.11F

$$

INZ060-061-067>069-081>083-085>088-231000-
SOUTHWEST INDIANA

CITY           SKY/WX    TMP DP  RH WIND       PRES   REMARKS
EVANSVILLE     HVY RAIN  50  48  93 NE16      29.95F FOG
HUNTINGBURG +  LGT RAIN  51  45  79 E13       29.99S

$$

INZ062-063-066-070>080-084-089>092-231000-
SOUTH CENTRAL AND SOUTHEAST INDIANA

CITY           SKY/WX    TMP DP  RH WIND       PRES   REMARKS
BLOOMINGTON    MOCLDY    57  32  38 E10       30.04S
SEYMOUR +      FAIR      57  34  41 E8        30.05S

$$





USA.gov is the U.S. government's official web portal to all federal, state and local government web resources and services.